Time,TemperatureF,DewpointF,PressureIn,WindDirection,WindDirectionDegrees,WindSpeedMPH,WindSpeedGustMPH,Humidity,HourlyPrecipIn,Conditions,Clouds,dailyrainin,SolarRadiationWatts/m^2,SoftwareType,DateUTC
2013-09-04 00:02:00,61.0,50.0,-100.00,NNW,337,10.0,15.0,66,0.00,,,0.01,0.000000,,2013-09-04 06:02:00,
2013-09-04 00:42:00,61.0,50.0,-100.00,NNW,347,9.0,14.0,66,0.00,,,0.01,0.000000,,2013-09-04 06:42:00,
2013-09-04 00:52:00,61.0,50.0,-100.00,NNW,347,9.0,14.0,66,0.00,,,0.01,0.000000,,2013-09-04 06:52:00,
2013-09-04 01:02:00,61.0,50.0,-100.00,NNW,347,9.0,14.0,66,0.00,,,0.01,0.000000,,2013-09-04 07:02:00,
2013-09-04 01:11:00,61.0,50.0,-100.00,NNW,347,9.0,14.0,66,0.00,,,0.01,0.000000,,2013-09-04 07:11:00,
2013-09-04 01:12:00,63.0,49.0,-100.00,NNE,22,5.0,10.0,60,0.00,,,0.01,0.000000,,2013-09-04 07:12:00,
2013-09-04 01:42:00,63.0,49.0,-100.00,NNE,22,5.0,10.0,60,0.00,,,0.01,0.000000,,2013-09-04 07:42:00,
2013-09-04 01:52:00,63.0,49.0,-100.00,NNE,22,5.0,10.0,60,0.00,,,0.01,0.000000,,2013-09-04 07:52:00,
2013-09-04 02:02:00,63.0,49.0,-100.00,NNE,22,5.0,10.0,60,0.00,,,0.01,0.000000,,2013-09-04 08:02:00,
2013-09-04 02:43:00,62.0,47.0,-100.00,SSW,200,4.0,5.0,58,0.00,,,0.01,0.000000,,2013-09-04 08:43:00,
2013-09-04 02:52:00,62.0,47.0,-100.00,SSW,200,4.0,5.0,58,0.00,,,0.01,0.000000,,2013-09-04 08:52:00,
2013-09-04 03:01:00,62.0,47.0,-100.00,SSW,200,4.0,5.0,58,0.00,,,0.01,0.000000,,2013-09-04 09:01:00,
2013-09-04 03:11:00,62.0,47.0,-100.00,SSW,200,4.0,5.0,58,0.00,,,0.01,0.000000,,2013-09-04 09:11:00,
2013-09-04 03:12:00,60.0,50.0,-100.00,NW,322,2.0,6.0,70,0.00,,,0.01,0.000000,,2013-09-04 09:12:00,
2013-09-04 03:43:00,60.0,50.0,-100.00,NW,322,2.0,6.0,70,0.00,,,0.01,0.000000,,2013-09-04 09:43:00,
2013-09-04 03:53:00,60.0,50.0,-100.00,NW,322,2.0,6.0,70,0.00,,,0.01,0.000000,,2013-09-04 09:53:00,
2013-09-04 04:03:00,60.0,50.0,-100.00,NW,322,2.0,6.0,70,0.00,,,0.01,0.000000,,2013-09-04 10:03:00,
2013-09-04 04:12:00,60.0,48.0,-100.00,NW,316,3.0,5.0,65,0.00,,,0.01,0.000000,,2013-09-04 10:12:00,
2013-09-04 04:42:00,60.0,48.0,-100.00,NW,316,3.0,5.0,65,0.00,,,0.01,0.000000,,2013-09-04 10:42:00,
2013-09-04 04:52:00,60.0,48.0,-100.00,NW,316,3.0,5.0,65,0.00,,,0.01,0.000000,,2013-09-04 10:52:00,
2013-09-04 05:02:00,60.0,48.0,-100.00,NW,316,3.0,5.0,65,0.00,,,0.01,0.000000,,2013-09-04 11:02:00,
2013-09-04 05:42:00,60.0,49.0,-100.00,NNW,348,3.0,4.0,67,0.00,,,0.01,0.000000,,2013-09-04 11:42:00,
2013-09-04 05:52:00,60.0,49.0,-100.00,NNW,348,3.0,4.0,67,0.00,,,0.01,0.000000,,2013-09-04 11:52:00,
2013-09-04 06:01:00,60.0,49.0,-100.00,NNW,348,3.0,4.0,67,0.00,,,0.01,0.000000,,2013-09-04 12:01:00,
2013-09-04 06:11:00,60.0,49.0,-100.00,NNW,348,3.0,4.0,67,0.00,,,0.01,0.000000,,2013-09-04 12:11:00,
2013-09-04 06:42:00,59.0,47.0,-100.00,NNE,20,4.0,5.0,64,0.00,,,0.01,0.000000,,2013-09-04 12:42:00,
2013-09-04 06:52:00,59.0,47.0,-100.00,NNE,20,4.0,5.0,64,0.00,,,0.01,0.000000,,2013-09-04 12:52:00,
2013-09-04 07:01:00,59.0,47.0,-100.00,NNE,20,4.0,5.0,64,0.00,,,0.01,0.000000,,2013-09-04 13:01:00,
2013-09-04 07:11:00,59.0,47.0,-100.00,NNE,20,4.0,5.0,64,0.00,,,0.01,0.000000,,2013-09-04 13:11:00,
2013-09-04 07:42:00,59.0,48.0,-100.00,NNE,15,4.0,6.0,68,0.00,,,0.01,5.000000,,2013-09-04 13:42:00,
2013-09-04 07:52:00,59.0,48.0,-100.00,NNE,15,4.0,6.0,68,0.00,,,0.01,5.000000,,2013-09-04 13:52:00,
2013-09-04 08:01:00,59.0,48.0,-100.00,NNE,15,4.0,6.0,68,0.00,,,0.01,5.000000,,2013-09-04 14:01:00,
2013-09-04 08:11:00,59.0,48.0,-100.00,NNE,15,4.0,6.0,68,0.00,,,0.01,5.000000,,2013-09-04 14:11:00,
2013-09-04 08:12:00,64.0,50.0,-100.00,NE,37,3.0,5.0,60,0.00,,,0.01,136.000000,,2013-09-04 14:12:00,
2013-09-04 08:42:00,64.0,50.0,-100.00,NE,37,3.0,5.0,60,0.00,,,0.01,136.000000,,2013-09-04 14:42:00,
2013-09-04 08:52:00,64.0,50.0,-100.00,NE,37,3.0,5.0,60,0.00,,,0.01,136.000000,,2013-09-04 14:52:00,
2013-09-04 09:02:00,64.0,50.0,-100.00,NE,37,3.0,5.0,60,0.00,,,0.01,136.000000,,2013-09-04 15:02:00,
2013-09-04 09:12:00,69.0,50.0,-100.00,ESE,117,6.0,10.0,51,0.00,,,0.01,337.000000,,2013-09-04 15:12:00,
2013-09-04 09:43:00,69.0,50.0,-100.00,ESE,117,6.0,10.0,51,0.00,,,0.01,337.000000,,2013-09-04 15:43:00,
2013-09-04 09:53:00,69.0,50.0,-100.00,ESE,117,6.0,10.0,51,0.00,,,0.01,337.000000,,2013-09-04 15:53:00,
2013-09-04 10:04:00,69.0,50.0,-100.00,ESE,117,6.0,10.0,51,0.00,,,0.01,337.000000,,2013-09-04 16:04:00,
2013-09-04 10:12:00,72.0,51.0,-100.00,SE,124,7.0,11.0,47,0.00,,,0.01,521.000000,,2013-09-04 16:12:00,
2013-09-04 10:43:00,72.0,51.0,-100.00,SE,124,7.0,11.0,47,0.00,,,0.01,521.000000,,2013-09-04 16:43:00,
2013-09-04 10:53:00,72.0,51.0,-100.00,SE,124,7.0,11.0,47,0.00,,,0.01,521.000000,,2013-09-04 16:53:00,
2013-09-04 11:03:00,72.0,51.0,-100.00,SE,124,7.0,11.0,47,0.00,,,0.01,521.000000,,2013-09-04 17:03:00,
2013-09-04 11:12:00,75.0,50.0,-100.00,SE,139,5.0,10.0,41,0.00,,,0.01,676.000000,,2013-09-04 17:12:00,
2013-09-04 11:42:00,75.0,50.0,-100.00,SE,139,5.0,10.0,41,0.00,,,0.01,676.000000,,2013-09-04 17:42:00,
2013-09-04 11:52:00,75.0,50.0,-100.00,SE,139,5.0,10.0,41,0.00,,,0.01,676.000000,,2013-09-04 17:52:00,
2013-09-04 12:02:00,75.0,50.0,-100.00,SE,139,5.0,10.0,41,0.00,,,0.01,676.000000,,2013-09-04 18:02:00,
2013-09-04 12:42:00,80.0,51.0,-100.00,South,188,5.0,12.0,36,0.00,,,0.01,786.000000,,2013-09-04 18:42:00,
2013-09-04 12:52:00,80.0,51.0,-100.00,South,188,5.0,12.0,36,0.00,,,0.01,786.000000,,2013-09-04 18:52:00,
2013-09-04 13:02:00,80.0,51.0,-100.00,South,188,5.0,12.0,36,0.00,,,0.01,786.000000,,2013-09-04 19:02:00,
2013-09-04 13:11:00,80.0,51.0,-100.00,South,188,5.0,12.0,36,0.00,,,0.01,786.000000,,2013-09-04 19:11:00,
2013-09-04 13:42:00,82.0,51.0,-100.00,SE,138,4.0,10.0,34,0.00,,,0.01,859.000000,,2013-09-04 19:42:00,
2013-09-04 13:52:00,82.0,51.0,-100.00,SE,138,4.0,10.0,34,0.00,,,0.01,859.000000,,2013-09-04 19:52:00,
2013-09-04 14:02:00,82.0,51.0,-100.00,SE,138,4.0,10.0,34,0.00,,,0.01,859.000000,,2013-09-04 20:02:00,
2013-09-04 14:11:00,82.0,51.0,-100.00,SE,138,4.0,10.0,34,0.00,,,0.01,859.000000,,2013-09-04 20:11:00,
2013-09-04 14:43:00,82.0,48.0,-100.00,South,190,5.0,9.0,31,0.00,,,0.01,815.000000,,2013-09-04 20:43:00,
2013-09-04 14:53:00,82.0,48.0,-100.00,South,190,5.0,9.0,31,0.00,,,0.01,815.000000,,2013-09-04 20:53:00,
2013-09-04 15:01:00,82.0,48.0,-100.00,South,190,5.0,9.0,31,0.00,,,0.01,815.000000,,2013-09-04 21:01:00,
2013-09-04 15:11:00,82.0,48.0,-100.00,South,190,5.0,9.0,31,0.00,,,0.01,815.000000,,2013-09-04 21:11:00,
2013-09-04 15:12:00,84.0,46.0,-100.00,South,183,7.0,16.0,27,0.00,,,0.01,747.000000,,2013-09-04 21:12:00,
2013-09-04 15:44:00,84.0,46.0,-100.00,South,183,7.0,16.0,27,0.00,,,0.01,747.000000,,2013-09-04 21:44:00,
2013-09-04 15:54:00,84.0,46.0,-100.00,South,183,7.0,16.0,27,0.00,,,0.01,747.000000,,2013-09-04 21:54:00,
2013-09-04 16:04:00,84.0,46.0,-100.00,South,183,7.0,16.0,27,0.00,,,0.01,747.000000,,2013-09-04 22:04:00,
2013-09-04 16:12:00,83.0,46.0,-100.00,South,176,8.0,15.0,27,0.00,,,0.00,630.000000,,2013-09-04 22:12:00,
2013-09-04 16:43:00,83.0,46.0,-100.00,South,176,8.0,15.0,27,0.00,,,0.00,630.000000,,2013-09-04 22:43:00,
2013-09-04 16:54:00,83.0,46.0,-100.00,South,176,8.0,15.0,27,0.00,,,0.00,630.000000,,2013-09-04 22:54:00,
2013-09-04 17:03:00,83.0,46.0,-100.00,South,176,8.0,15.0,27,0.00,,,0.00,630.000000,,2013-09-04 23:03:00,
2013-09-04 17:42:00,77.0,43.0,-100.00,SSE,152,5.0,12.0,30,0.00,,,0.00,299.000000,,2013-09-04 23:42:00,
2013-09-04 17:52:00,77.0,43.0,-100.00,SSE,152,5.0,12.0,30,0.00,,,0.00,299.000000,,2013-09-04 23:52:00,
2013-09-04 18:01:00,77.0,43.0,-100.00,SSE,152,5.0,12.0,30,0.00,,,0.00,299.000000,,2013-09-05 00:01:00,
2013-09-04 18:11:00,77.0,43.0,-100.00,SSE,152,5.0,12.0,30,0.00,,,0.00,299.000000,,2013-09-05 00:11:00,
2013-09-04 18:43:00,75.0,41.0,-100.00,WSW,237,3.0,9.0,30,0.00,,,0.00,91.000000,,2013-09-05 00:43:00,
2013-09-04 18:52:00,75.0,41.0,-100.00,WSW,237,3.0,9.0,30,0.00,,,0.00,91.000000,,2013-09-05 00:52:00,
2013-09-04 19:01:00,75.0,41.0,-100.00,WSW,237,3.0,9.0,30,0.00,,,0.00,91.000000,,2013-09-05 01:01:00,
2013-09-04 19:11:00,75.0,41.0,-100.00,WSW,237,3.0,9.0,30,0.00,,,0.00,91.000000,,2013-09-05 01:11:00,
2013-09-04 19:42:00,73.0,39.0,-100.00,SW,235,3.0,5.0,29,0.00,,,0.00,52.000000,,2013-09-05 01:42:00,
2013-09-04 19:52:00,73.0,39.0,-100.00,SW,235,3.0,5.0,29,0.00,,,0.00,52.000000,,2013-09-05 01:52:00,
2013-09-04 20:02:00,73.0,39.0,-100.00,SW,235,3.0,5.0,29,0.00,,,0.00,52.000000,,2013-09-05 02:02:00,
2013-09-04 20:11:00,73.0,39.0,-100.00,SW,235,3.0,5.0,29,0.00,,,0.00,52.000000,,2013-09-05 02:11:00,
2013-09-04 20:52:00,71.0,38.0,-100.00,ESE,120,10.0,17.0,30,0.00,,,0.00,5.000000,,2013-09-05 02:52:00,
2013-09-04 21:02:00,71.0,38.0,-100.00,ESE,120,10.0,17.0,30,0.00,,,0.00,5.000000,,2013-09-05 03:02:00,
2013-09-04 21:11:00,71.0,38.0,-100.00,ESE,120,10.0,17.0,30,0.00,,,0.00,5.000000,,2013-09-05 03:11:00,
2013-09-04 21:12:00,68.0,44.0,-100.00,ESE,103,8.0,21.0,42,0.00,,,0.00,0.000000,,2013-09-05 03:12:00,
2013-09-04 21:45:00,68.0,44.0,-100.00,ESE,103,8.0,21.0,42,0.00,,,0.00,0.000000,,2013-09-05 03:45:00,
2013-09-04 21:54:00,68.0,44.0,-100.00,ESE,103,8.0,21.0,42,0.00,,,0.00,0.000000,,2013-09-05 03:54:00,
2013-09-04 22:04:00,68.0,44.0,-100.00,ESE,103,8.0,21.0,42,0.00,,,0.00,0.000000,,2013-09-05 04:04:00,
2013-09-04 22:12:00,65.0,44.0,-100.00,North,353,9.0,14.0,46,0.00,,,0.00,0.000000,,2013-09-05 04:12:00,
2013-09-04 22:44:00,65.0,44.0,-100.00,North,353,9.0,14.0,46,0.00,,,0.00,0.000000,,2013-09-05 04:44:00,
2013-09-04 22:53:00,65.0,44.0,-100.00,North,353,9.0,14.0,46,0.00,,,0.00,0.000000,,2013-09-05 04:53:00,
2013-09-04 23:03:00,65.0,44.0,-100.00,North,353,9.0,14.0,46,0.00,,,0.00,0.000000,,2013-09-05 05:03:00,
2013-09-04 23:12:00,64.0,42.0,-100.00,NNW,347,9.0,12.0,45,0.00,,,0.00,0.000000,,2013-09-05 05:12:00,
2013-09-04 23:43:00,64.0,42.0,-100.00,NNW,347,9.0,12.0,45,0.00,,,0.00,0.000000,,2013-09-05 05:43:00,
2013-09-04 23:52:00,64.0,42.0,-100.00,NNW,347,9.0,12.0,45,0.00,,,0.00,0.000000,,2013-09-05 05:52:00,